Girona, Spain

6:22 AM CEST on May 28, 2018 (GMT +0200)
Girona

Weather History for LEGE - January, 2014

Change the Weather History Date:

Friday, January 31, 2014

  Actual Average Record
Temperature  
Mean Temperature 42 °F -  
Max Temperature 56 °F 57 °F 69 °F (2013)
Min Temperature 29 °F 35 °F 24 °F (2005)
Degree Days  
Heating Degree Days 22    
Moisture  
Dew Point 37 °F    
Average Humidity 86    
Maximum Humidity 100    
Minimum Humidity 47    
Precipitation  
Precipitation 0.00 in 0.06 in - ()
Sea Level Pressure  
Sea Level Pressure 29.81 in    
Wind  
Wind Speed 2 mph ()    
Max Wind Speed 14 mph    
Max Gust Speed -    
Visibility 6.2 miles    
Events Fog    
Averages and records for this station are not official NWS values.
T = Trace of Precipitation, MM = Missing Value Source: Averaged Metar Reports

Daily Weather History Graph

Daily Weather History Graph

Search for Another Location

Airport or City:

Astronomy

Jan. 31, 2014 Rise Set
Actual Time 8:02 AM CET 6:02 PM CET
Civil Twilight 7:33 AM CET 6:32 PM CET
Nautical Twilight 6:59 AM CET 7:05 PM CET
Astronomical Twilight 6:26 AM CET 7:38 PM CET
Moon 8:00 AM CET (1/31) 7:10 PM CET (1/31)
Length of Visible Light 10h 59m
Length of Day
9h 59m
New Moon, 0% of the Moon is Illuminated
Jan 31
New Moon
Feb 6
First Quarter
Feb 15
Full
Feb 22
Last Quarter
Mar 1
New

Hourly Weather History & Observations

Time (CET) Temp. Windchill Dew Point Humidity Pressure Visibility Wind Dir Wind Speed Gust Speed Precip Events Conditions
12:00 AM 35 °F - 35 °F 100% 29.73 in - WSW 1.2 mph - -  
12:00 AM 35.6 °F - 33.8 °F 93% 29.71 in 6.2 mi Variable 1.2 mph - N/A   Partly Cloudy
12:30 AM 35.6 °F - 35.6 °F 100% 29.71 in 6.2 mi WNW 2.3 mph - N/A   Partly Cloudy
1:00 AM 34 °F - 34 °F 100% 29.73 in 9 mi Calm Calm - -   Scattered Clouds
1:00 AM 33.8 °F - 33.8 °F 100% 29.71 in 6.2 mi Calm Calm - N/A   Partly Cloudy
1:30 AM 33.8 °F - 33.8 °F 100% 29.71 in 6.2 mi Calm Calm - N/A   Partly Cloudy
2:00 AM 32 °F - 32 °F 100% 29.72 in - Calm Calm - -  
2:00 AM 32.0 °F - 32.0 °F 100% 29.71 in 6.2 mi NNE 1.2 mph - N/A   Partly Cloudy
2:30 AM 33.8 °F - 32.0 °F 93% 29.71 in 6.2 mi Calm Calm - N/A   Partly Cloudy
3:00 AM 32 °F - 32 °F 98% 29.73 in - NE 1.2 mph - -  
3:00 AM 32.0 °F - 32.0 °F 100% 29.71 in 5.0 mi Calm Calm - N/A   Partly Cloudy
3:30 AM 33.8 °F - 33.8 °F 100% 29.71 in 4.3 mi Calm Calm - N/A   Partly Cloudy
3:46 AM 32.0 °F - 32.0 °F 100% 29.71 in 0.7 mi Variable 2.3 mph - N/A Fog Patches of Fog
4:00 AM 31 °F - 31 °F 100% 29.73 in - West 2.3 mph - -  
4:00 AM 32.0 °F - 32.0 °F 100% 29.71 in 0.6 mi Variable 2.3 mph - N/A Fog Patches of Fog
4:30 AM 32.0 °F - 32.0 °F 100% 29.71 in 0.6 mi Calm Calm - N/A Fog Patches of Fog
5:00 AM 30 °F - 30 °F 100% 29.75 in - Calm Calm - -  
5:00 AM 30.2 °F - 30.2 °F 100% 29.74 in 1.2 mi Variable 1.2 mph - N/A Fog Patches of Fog
5:30 AM 30.2 °F - 30.2 °F 100% 29.74 in 0.6 mi Calm Calm - N/A Fog Patches of Fog
6:00 AM 31 °F - 31 °F 99% 29.76 in - NNE 3.5 mph - -  
6:00 AM 32.0 °F - 32.0 °F 100% 29.74 in 1.6 mi NNE 2.3 mph - N/A Fog Patches of Fog
6:30 AM 33.8 °F 30.8 °F 33.8 °F 100% 29.74 in 4.3 mi North 3.5 mph - N/A   Partly Cloudy
7:00 AM 31 °F - 31 °F 99% 29.77 in 5 mi NNE 2.3 mph - -   Mist
7:00 AM 32.0 °F - 32.0 °F 100% 29.74 in 5.0 mi Variable 2.3 mph - N/A   Partly Cloudy
7:30 AM 30.2 °F - 30.2 °F 100% 29.77 in 5.0 mi Calm Calm - N/A   Scattered Clouds
8:00 AM 36 °F - 36 °F 100% 29.79 in - NNW 5.8 mph - -  
8:00 AM 37.4 °F 32.8 °F 37.4 °F 100% 29.77 in 6.2 mi NNW 5.8 mph - N/A   Scattered Clouds
8:30 AM 33.8 °F - 33.8 °F 100% 29.80 in 6.2 mi Variable 2.3 mph - N/A Fog Patches of Fog
9:00 AM 34 °F - 34 °F 100% 29.82 in - NNE 2.3 mph - -  
9:00 AM 33.8 °F - 33.8 °F 100% 29.80 in 6.2 mi Variable 1.2 mph - N/A Fog Patches of Fog
9:30 AM 35.6 °F - 35.6 °F 100% 29.83 in 6.2 mi Calm Calm - N/A   Mostly Cloudy
10:00 AM 39 °F - 39 °F 99% 29.84 in 12 mi Calm Calm - -   Mostly Cloudy
10:00 AM 37.4 °F - 37.4 °F 100% 29.83 in 6.2 mi Calm Calm - N/A   Mostly Cloudy
10:30 AM 44.6 °F - 42.8 °F 93% 29.83 in 6.2 mi Calm Calm - N/A   Scattered Clouds
11:00 AM 47 °F - 43 °F 80% 29.85 in - Calm Calm - -  
11:00 AM 44.6 °F - 41.0 °F 87% 29.86 in 6.2 mi Calm Calm - N/A   Scattered Clouds
11:30 AM 48.2 °F - 41.0 °F 76% 29.86 in 6.2 mi Calm Calm - N/A   Scattered Clouds
12:00 PM 51 °F - 40 °F 56% 29.85 in - NE 4.6 mph - -  
12:00 PM 50.0 °F - 39.2 °F 66% 29.86 in 6.2 mi NE 3.5 mph - N/A   Partly Cloudy
12:30 PM 51.8 °F - 41.0 °F 67% 29.86 in 6.2 mi Variable 2.3 mph - N/A   Scattered Clouds
1:00 PM 55 °F - 41 °F 48% 29.84 in 16 mi SE 1.2 mph - -   Partly Cloudy
1:00 PM 53.6 °F - 41.0 °F 62% 29.86 in 6.2 mi Calm Calm - N/A   Scattered Clouds
1:30 PM 53.6 °F - 39.2 °F 58% 29.86 in 6.2 mi South 2.3 mph - N/A   Scattered Clouds
2:00 PM 55 °F - 41 °F 49% 29.83 in - South 9.2 mph - -  
2:00 PM 53.6 °F - 41.0 °F 62% 29.83 in 6.2 mi South 6.9 mph - N/A   Partly Cloudy
2:30 PM 53.6 °F - 41.0 °F 62% 29.83 in 6.2 mi SSW 8.1 mph - N/A   Scattered Clouds
3:00 PM 55 °F - 40 °F 47% 29.83 in - SSW 9.2 mph - -  
3:00 PM 53.6 °F - 39.2 °F 58% 29.83 in 6.2 mi SSW 9.2 mph - N/A   Scattered Clouds
3:30 PM 53.6 °F - 41.0 °F 62% 29.83 in 6.2 mi SSW 9.2 mph - N/A   Partly Cloudy
4:00 PM 55 °F - 41 °F 48% 29.84 in 16 mi SSW 10.4 mph - -   Scattered Clouds
4:00 PM 53.6 °F - 41.0 °F 62% 29.83 in 6.2 mi South 10.4 mph - N/A   Partly Cloudy
4:30 PM 53.6 °F - 41.0 °F 62% 29.86 in 6.2 mi South 10.4 mph - N/A   Scattered Clouds
5:00 PM 51 °F - 41 °F 60% 29.85 in - South 13.8 mph - -  
5:00 PM 51.8 °F - 41.0 °F 67% 29.86 in 6.2 mi South 13.8 mph - N/A   Scattered Clouds
5:30 PM 48.2 °F - 41.0 °F 76% 29.86 in 6.2 mi South 10.4 mph - N/A   Scattered Clouds
6:00 PM 47 °F - 41 °F 73% 29.86 in - South 8.1 mph - -  
6:00 PM 46.4 °F 42.9 °F 41.0 °F 81% 29.86 in 6.2 mi SSW 6.9 mph - N/A   Scattered Clouds
6:30 PM 46.4 °F 42.4 °F 41.0 °F 81% 29.86 in 6.2 mi South 8.1 mph - N/A   Partly Cloudy
7:00 PM 45 °F - 41 °F 81% 29.88 in 19 mi South 5.8 mph - -   Scattered Clouds
7:00 PM 44.6 °F 41.4 °F 41.0 °F 87% 29.89 in 6.2 mi South 5.8 mph - N/A   Partly Cloudy
7:30 PM 42.8 °F 41.1 °F 39.2 °F 87% 29.89 in 6.2 mi South 3.5 mph - N/A   Partly Cloudy
8:00 PM 43 °F - 41 °F 88% 29.89 in - South 2.3 mph - -  
8:00 PM 42.8 °F 41.1 °F 39.2 °F 87% 29.89 in 6.2 mi South 3.5 mph - N/A   Partly Cloudy
8:30 PM 41.0 °F - 39.2 °F 93% 29.89 in 6.2 mi Calm Calm - N/A   Partly Cloudy
9:00 PM 42 °F - 39 °F 87% 29.90 in - WSW 4.6 mph - -  
9:00 PM 41.0 °F 39.0 °F 39.2 °F 93% 29.89 in 6.2 mi WSW 3.5 mph - N/A   Partly Cloudy
9:30 PM 39.2 °F - 37.4 °F 93% 29.89 in 6.2 mi Variable 1.2 mph - N/A   Partly Cloudy
10:00 PM 41 °F - 40 °F 93% 29.88 in - SW 3.5 mph - -  
10:00 PM 41.0 °F 39.0 °F 39.2 °F 93% 29.89 in - WSW 3.5 mph - N/A   Clear
10:30 PM 39.2 °F - 35.6 °F 87% 29.89 in - Calm Calm - N/A   Clear
11:00 PM 38 °F - 38 °F 99% 29.89 in - West 4.6 mph - -  
11:00 PM 39.2 °F 37.0 °F 37.4 °F 93% 29.89 in - West 3.5 mph - N/A   Clear
11:30 PM 37.4 °F - 35.6 °F 93% 29.89 in - Variable 1.2 mph - N/A   Clear